map of ORU home
ORU - Airport
Location
City:  Oruro, Cercado, Oruro, Bolivia
Name:Juan Mendoza Airport
ICAO:SLOR
IATA:ORU

Details
Type:Airport (Aerodrome, Airfield)
Latitude:1757'45"S (-17.962588)
Longitude:6704'34"W (-67.076235)
Datum:WGS 1984
Elevation:12146 ft (3702 m)
Variation:8.67W (WMM2015 magnetic declination)
-0.19 annual change
Runways:2
Longest:8075 × 75 ft (2461 × 23 m), paved

Time
Time Zone:UTC-4
Local Time:

Weather
METAR:SLOR 201800Z 20008KT 9999 SCT020 FEW023CB 19/07 Q1035

Related Locations
Nearby:
Farthest:ZJYX: 12346 mi / 19869 km
Yongxing Island [Yongxing Island Airport], Xisha Islands (Woody Island, Paracel Islands), 46, CN

Find:

   beyond  
but within

Other Information
Maps:
NOTAMs:
Links:
Sources:

  
  • flag of Bolivia
  • flag of Oruro
  

Sectional Chart

Flight Planning
at skyvector.com

Satellite Image

Google Maps Satellite view

 

Copyright © 2004-2019 Karl L. Swartz. All rights reserved.
The Great Circle Mapper name and logo are trademarks of the Great Circle Mapper.
All other trademarks mentioned herein belong to their respective owners.
Please see credits for attibutions and further copyright information.

  Follow gcmap on Facebook Follow gcmap on Twitter Follow gcmap on Google+ GCmap on LinkedIn

hCard Microformat

Geo Microformat